When you browse on this site, cookies collect data to enhance your experience and personalize the content and advertising you see.
Visit our Privacy Policy to learn more. By continuing to use the site, you agree to this use of cookies and data.
  • In Lithuania
  • List of Countries
  • For 7 days
  • Water Temperature
  • Satellite Maps
  • Weather Map
  • Weather Widgets
  • user-avatar
    Login

    Hourly Weather Lezhe

    Today, 22 July, Monday

    Time Temperature Precipitation Wind Pressure Humidity
    00:00 +24°C° 0 mm 1 mps 741 mmHg 62%
    01:00 +24°C° 0 mm 1 mps 741 mmHg 62%
    02:00 +23°C° 0 mm 1 mps 740 mmHg 62%
    03:00 +23°C° 0 mm 2 mps 740 mmHg 62%
    04:00 +23°C° 0 mm 2 mps 740 mmHg 62%
    05:00 +25°C° 0 mm 2 mps 740 mmHg 58%
    06:00 +27°C° 0 mm 2 mps 741 mmHg 55%
    07:00 +29°C° 0 mm 1 mps 741 mmHg 51%
    08:00 +30°C° 0 mm 2 mps 741 mmHg 45%
    09:00 +32°C° 0 mm 2 mps 741 mmHg 38%
    10:00 +35°C° 0 mm 2 mps 741 mmHg 32%
    11:00 +36°C° 0 mm 3 mps 741 mmHg 30%
    12:00 +36°C° 0 mm 3 mps 740 mmHg 28%
    13:00 +37°C° 0 mm 3 mps 741 mmHg 28%
    14:00 +36°C° 0 mm 3 mps 740 mmHg 30%
    15:00 +36°C° 0 mm 3 mps 740 mmHg 32%
    16:00 +35°C° 0 mm 3 mps 740 mmHg 34%
    17:00 +33°C° 0 mm 3 mps 740 mmHg 40%
    18:00 +30°C° 0 mm 2 mps 740 mmHg 47%
    19:00 +28°C° 0 mm 2 mps 740 mmHg 53%
    20:00 +27°C° 0.2 mm 3 mps 740 mmHg 59%
    21:00 +25°C° 0.2 mm 3 mps 740 mmHg 65%
    22:00 +24°C° 0.2 mm 3 mps 740 mmHg 71%
    23:00 +22°C° 0.1 mm 3 mps 740 mmHg 74%

    Tomorrow, 23 July, Tuesday

    Time Temperature Precipitation Wind Pressure Humidity
    00:00 +22°C° 0.1 mm 3 mps 739 mmHg 77%
    01:00 +21°C° 0.1 mm 3 mps 739 mmHg 80%
    02:00 +21°C° 0 mm 3 mps 739 mmHg 80%
    03:00 +21°C° 0 mm 3 mps 739 mmHg 80%
    04:00 +21°C° 0 mm 3 mps 739 mmHg 80%
    05:00 +22°C° 0 mm 4 mps 739 mmHg 74%
    06:00 +25°C° 0 mm 4 mps 739 mmHg 68%
    07:00 +26°C° 0 mm 4 mps 739 mmHg 62%
    08:00 +28°C° 0 mm 4 mps 739 mmHg 55%
    09:00 +30°C° 0 mm 5 mps 739 mmHg 48%
    10:00 +32°C° 0 mm 5 mps 739 mmHg 41%
    11:00 +33°C° 0 mm 4 mps 739 mmHg 38%
    12:00 +34°C° 0 mm 4 mps 738 mmHg 34%
    13:00 +35°C° 0 mm 4 mps 738 mmHg 31%
    14:00 +35°C° 0 mm 4 mps 738 mmHg 31%
    15:00 +35°C° 0 mm 4 mps 738 mmHg 31%
    16:00 +34°C° 0 mm 4 mps 738 mmHg 31%
    17:00 +32°C° 0 mm 4 mps 737 mmHg 37%
    18:00 +29°C° 0 mm 4 mps 737 mmHg 43%
    19:00 +27°C° 0 mm 3 mps 737 mmHg 49%
    20:00 +26°C° 0 mm 3 mps 737 mmHg 51%
    21:00 +25°C° 0 mm 3 mps 738 mmHg 52%
    22:00 +25°C° 0 mm 4 mps 738 mmHg 53%
    23:00 +24°C° 0 mm 3 mps 738 mmHg 56%

    Day after tomorrow, 24 July, Wednesday

    Time Temperature Precipitation Wind Pressure Humidity
    00:00 +22°C° 0 mm 3 mps 737 mmHg 58%
    01:00 +22°C° 0 mm 3 mps 737 mmHg 61%
    02:00 +22°C° 0 mm 3 mps 737 mmHg 63%
    03:00 +21°C° 0 mm 4 mps 737 mmHg 66%
    04:00 +21°C° 0 mm 4 mps 737 mmHg 68%
    05:00 +22°C° 0 mm 4 mps 737 mmHg 63%
    06:00 +25°C° 0 mm 4 mps 737 mmHg 59%
    07:00 +27°C° 0 mm 4 mps 737 mmHg 55%
    08:00 +28°C° 0 mm 4 mps 737 mmHg 50%
    09:00 +30°C° 0 mm 5 mps 737 mmHg 44%
    10:00 +33°C° 0 mm 5 mps 737 mmHg 39%
    11:00 +33°C° 0 mm 5 mps 737 mmHg 38%
    12:00 +34°C° 0 mm 5 mps 737 mmHg 37%
    13:00 +34°C° 0 mm 5 mps 737 mmHg 35%
    14:00 +34°C° 0 mm 5 mps 737 mmHg 36%
    15:00 +34°C° 0 mm 5 mps 737 mmHg 36%
    16:00 +33°C° 0 mm 5 mps 736 mmHg 37%
    17:00 +32°C° 0 mm 4 mps 736 mmHg 43%
    18:00 +29°C° 0 mm 3 mps 737 mmHg 49%
    19:00 +27°C° 0 mm 3 mps 737 mmHg 54%
    20:00 +26°C° 0 mm 3 mps 737 mmHg 56%
    21:00 +25°C° 0 mm 3 mps 737 mmHg 57%
    22:00 +24°C° 0 mm 3 mps 738 mmHg 58%
    23:00 +24°C° 0 mm 3 mps 738 mmHg 60%

    25 July, Thursday

    Time Temperature Precipitation Wind Pressure Humidity
    00:00 +22°C° 0 mm 4 mps 737 mmHg 62%
    01:00 +21°C° 0 mm 4 mps 737 mmHg 64%
    02:00 +21°C° 0 mm 4 mps 737 mmHg 66%
    03:00 +21°C° 0 mm 4 mps 737 mmHg 68%
    04:00 +20°C° 0 mm 4 mps 737 mmHg 69%
    05:00 +22°C° 0 mm 4 mps 738 mmHg 65%
    06:00 +23°C° 0 mm 4 mps 738 mmHg 61%
    07:00 +26°C° 0 mm 4 mps 738 mmHg 57%
    08:00 +28°C° 0 mm 3 mps 738 mmHg 50%
    09:00 +30°C° 0 mm 3 mps 738 mmHg 43%
    10:00 +33°C° 0 mm 3 mps 739 mmHg 36%
    11:00 +34°C° 0 mm 3 mps 738 mmHg 34%
    12:00 +35°C° 0 mm 3 mps 738 mmHg 33%
    13:00 +36°C° 0 mm 3 mps 738 mmHg 31%
    14:00 +35°C° 0 mm 3 mps 738 mmHg 33%
    15:00 +34°C° 0 mm 3 mps 738 mmHg 35%
    16:00 +34°C° 0 mm 2 mps 737 mmHg 37%
    17:00 +30°C° 0 mm 2 mps 737 mmHg 44%
    18:00 +28°C° 0 mm 1 mps 737 mmHg 51%
    19:00 +26°C° 0 mm 1 mps 737 mmHg 58%
    20:00 +25°C° 0 mm 1 mps 737 mmHg 59%
    21:00 +25°C° 0 mm 1 mps 737 mmHg 60%
    22:00 +24°C° 0 mm 1 mps 738 mmHg 60%
    23:00 +24°C° 0 mm 1 mps 738 mmHg 62%

    26 July, Friday

    Time Temperature Precipitation Wind Pressure Humidity
    00:00 +24°C° 0 mm 2 mps 737 mmHg 63%
    01:00 +23°C° 0 mm 2 mps 737 mmHg 64%
    02:00 +23°C° 0 mm 2 mps 737 mmHg 65%
    03:00 +23°C° 0 mm 2 mps 737 mmHg 66%
    04:00 +21°C° 0 mm 2 mps 737 mmHg 67%
    05:00 +24°C° 0 mm 1 mps 736 mmHg 62%
    06:00 +26°C° 0 mm 1 mps 736 mmHg 57%
    07:00 +28°C° 0 mm 1 mps 736 mmHg 52%
    08:00 +30°C° 0 mm 1 mps 736 mmHg 47%
    09:00 +32°C° 0 mm 1 mps 736 mmHg 43%
    10:00 +33°C° 0 mm 1 mps 736 mmHg 38%
    11:00 +35°C° 0 mm 2 mps 736 mmHg 37%
    12:00 +35°C° 0 mm 3 mps 736 mmHg 37%
    13:00 +35°C° 0 mm 4 mps 735 mmHg 36%
    14:00 +34°C° 0 mm 4 mps 735 mmHg 38%
    15:00 +34°C° 0 mm 3 mps 734 mmHg 39%
    16:00 +33°C° 0 mm 3 mps 734 mmHg 41%
    17:00 +30°C° 0 mm 2 mps 734 mmHg 47%
    18:00 +28°C° 0 mm 1 mps 734 mmHg 54%
    19:00 +24°C° 0 mm 0 mps 734 mmHg 61%
    20:00 +25°C° 0 mm 1 mps 734 mmHg 62%
    21:00 +25°C° 0 mm 1 mps 734 mmHg 63%
    22:00 +24°C° 0 mm 1 mps 734 mmHg 64%
    23:00 +24°C° 0 mm 1 mps 734 mmHg 65%

    27 July, Saturday

    Time Temperature Precipitation Wind Pressure Humidity
    00:00 +21°C° 0 mm 0 mps 734 mmHg 65%
    01:00 +21°C° 0 mm 0 mps 734 mmHg 66%
    02:00 +21°C° 0 mm 0 mps 734 mmHg 66%
    03:00 +20°C° 0 mm 0 mps 734 mmHg 66%
    04:00 +22°C° 0 mm 1 mps 733 mmHg 67%
    05:00 +24°C° 0 mm 1 mps 733 mmHg 62%
    06:00 +26°C° 0 mm 1 mps 734 mmHg 57%
    07:00 +28°C° 0 mm 1 mps 734 mmHg 52%
    08:00 +29°C° 0 mm 1 mps 734 mmHg 48%
    09:00 +31°C° 0 mm 1 mps 734 mmHg 44%
    10:00 +34°C° 0 mm 2 mps 734 mmHg 40%
    11:00 +34°C° 0 mm 3 mps 734 mmHg 39%
    12:00 +34°C° 0 mm 3 mps 733 mmHg 38%
    13:00 +34°C° 0 mm 4 mps 733 mmHg 37%
    14:00 +34°C° 0 mm 3 mps 733 mmHg 39%
    15:00 +33°C° 0 mm 3 mps 733 mmHg 40%
    16:00 +32°C° 0 mm 2 mps 733 mmHg 42%
    17:00 +29°C° 0 mm 2 mps 733 mmHg 49%
    18:00 +27°C° 0 mm 1 mps 733 mmHg 57%
    19:00 +23°C° 0 mm 0 mps 733 mmHg 64%
    20:00 +25°C° 0 mm 1 mps 733 mmHg 66%
    21:00 +24°C° 0 mm 1 mps 733 mmHg 68%
    22:00 +24°C° 0 mm 1 mps 734 mmHg 70%
    23:00 +23°C° 0.1 mm 1 mps 734 mmHg 72%
    Show more